This is the latest recevied weather packets stored in our database for station/object R2AKT-13. If no packets are shown the sender has not sent any weather packets the latest 10 day(s).
| Time | Temp. | Humidity | Pressure | Rain* | Wind** | Luminosity | Snow |
|---|---|---|---|---|---|---|---|
| 1777965789 | 21.67° C | 36% | 983.9 hPa | - | 0.45 m/s, 254° | - | - |
| 1777965264 | 22.22° C | 35% | 983.9 hPa | - | 0.89 m/s, 138° | - | - |
| 1777964679 | 21.67° C | 36% | 983.8 hPa | - | 0.89 m/s, 213° | - | - |
| 1777964134 | 21.11° C | 37% | 983.9 hPa | - | 0 m/s | - | - |
| 1777963634 | 21.67° C | 36% | 983.9 hPa | - | 0.45 m/s, 144° | - | - |
| 1777963049 | 21.67° C | 37% | 983.9 hPa | - | 0.45 m/s, 196° | - | - |
| 1777962494 | 20.56° C | 37% | 983.8 hPa | - | 0 m/s | - | - |
| 1777961984 | 20.56° C | 37% | 983.8 hPa | - | 0.89 m/s, 143° | - | - |
| 1777961409 | 20° C | 38% | 983.8 hPa | - | 0.45 m/s, 271° | - | - |
| 1777960814 | 20° C | 37% | 983.7 hPa | - | 0.45 m/s, 130° | - | - |
| 1777960249 | 19.44° C | 38% | 983.8 hPa | - | 0.45 m/s, 173° | - | - |
| 1777959764 | 18.89° C | 39% | 983.8 hPa | - | 0 m/s | - | - |
| 1777959229 | 18.89° C | 39% | 983.7 hPa | - | 0.89 m/s, 254° | - | - |
| 1777958684 | 18.89° C | 39% | 983.6 hPa | - | 0.45 m/s, 220° | - | - |
| 1777958128 | 18.89° C | 39% | 983.7 hPa | - | 0.45 m/s, 99° | - | - |
| 1777957639 | 18.33° C | 40% | 983.5 hPa | - | 0.45 m/s, 243° | - | - |
| 1777957049 | 17.78° C | 41% | 983.6 hPa | - | 0.45 m/s, 271° | - | - |
| 1777956559 | 17.78° C | 41% | 983.5 hPa | - | 0.45 m/s, 262° | - | - |
| 1777956054 | 17.78° C | 41% | 983.5 hPa | - | 0.45 m/s, 183° | - | - |
| 1777955504 | 17.78° C | 42% | 983.4 hPa | - | 0.45 m/s, 276° | - | - |
| 1777954956 | 17.22° C | 42% | 983.3 hPa | - | 0 m/s | - | - |
| 1777954369 | 17.22° C | 43% | 983.3 hPa | - | 0.45 m/s, 267° | - | - |
| 1777953804 | 16.67° C | 44% | 983.3 hPa | - | 0.89 m/s, 266° | - | - |
| 1777953209 | 16.67° C | 44% | 983.2 hPa | - | 0.45 m/s, 239° | - | - |
| 1777952629 | 16.11° C | 45% | 983.2 hPa | - | 0.45 m/s, 249° | - | - |
* Rain since midnight (hover to see other rain measurements)
** Current wind speed in m/s (hover to see current wind gust speed)